Location: Quebec
(46.8000°N, 71.2500°W)
Time: 01:35:53
(UTC-04:00)

N. Korean satellite - Pass Details

Date: 12 October 2017
Orbit: 459 x 517 km, 97.2° (Epoch: 18 October)

Event Time Altitude Azimuth Distance (km) Brightness Sun altitude
Rises 18:36:54 0° 164° (SSE) 2,553 10.1 -6.6°
Reaches altitude 10° 18:38:59 10° 163° (SSE) 1,667 9.2 -6.9°
Maximum altitude 18:42:33 81° 77° (ENE) 492 6.5 -7.6°
Drops below altitude 10° 18:46:06 10° 350° (N) 1,650 9.4 -8.2°
Sets 18:48:09 0° 349° (N) 2,524 10.3 -8.5°
